DELTA 1 DEB, 10645

Orbit data source: Space-Track

DELTA 1 DEB, 10645 is space debris in LEO originally from a launch on Thu, 29 Jul 1976 UTC launched from the Air Force Western Test Range (AFWTR). Debris objects in space refer to the collection of defunct objects orbiting the Earth. Examples of debris include non-operational satellites, rocket bodies, and fragments generated from explosions, collisions, or faulty payload assembly.

Loading next visibility...
Identifier
10645, 1976-077F
Orbit
LEO
Country
Flag of USUS
Related business
Manufacturer
Unknown
Mission
Spacecraft
Bus & Motor
Unknown
Mass
Unknown
Launch date (UTC)
1976-07-29 (50 years ago)
Launch vehicle
Unknown
Launch site
Air Force Western Test Range (AFWTR)
Object type
Payload
Rocket body
Debris
Shape & HBR
Unknown shape, 0.2 m
Radar Cross Section
Medium (>0.1 m² and <1 m²)

Expand to show TLE details & history
Last TLE update: 19 hours ago

TLE from 19 hours ago
0 DELTA 1 DEB
1 10645U 76077F   26134.65495816  .00000030  00000-0  84593-3 0  9998
2 10645 102.4073  35.3738 0223193 271.7159 114.8589 11.99220663150670
Epoch: 2026-05-14T15:43Z
TLE epoch observation values (Epoch: 2026-05-14T15:43:08.385Z)
Latitude
28.17313°
Longitude
-79.54327°
Altitude
1,766.368 km
Speed
6.965 km/s
True Right ascension
01h 54m 33s
True Declination
28° 02' 53"
Sunlit
Object was in daylight at epoch
Visualization orbit readout
Latitude
Unknown
Longitude
Unknown
Altitude
Unknown
Speed
Unknown
Apparent Right ascension
Unknown
Apparent Declination
Unknown
Sunlit
N/A
Visualization observer readout
Local Sidereal Time
19:32:02
Azimuth
Unknown
Elevation
Unknown
Doppler factor
Unknown
Orbital elements
Apogee altitude
1,861.899 km
Perigee altitude
1,502.105 km
Semi-major axis
8,060.139 km
Eccentricity
0.02232
Inclination
102.4073°
RAAN
35.3738°
Arg. of periapsis
271.7159°
True anomaly
117.15201°
Mean anomaly
114.8589°
Eccentric anomaly
116.0082°
Mean motion
2.99937 °/min
Orbital period
120.03 mins
BSTAR
0.00084593
Loading maneuver chart data...
Computing Atmospheric mass density...
Loading historical data...
Loading historical data...
Loading historical data...
Loading historical data...
Loading historical data...
Loading historical data...
Loading historical data...

Documentation

Showing up to 5 results
|